Weather History for KBMG - November, 2013

Change the Weather History Date:

Saturday, November 2, 2013

  Actual Average Record
Temperature  
Mean Temperature 46 °F 50 °F  
Max Temperature 56 °F 61 °F 77 °F (2003)
Min Temperature 36 °F 38 °F 21 °F (2014)
Degree Days  
Heating Degree Days 19 16  
Month to date heating degree days 30 31  
Since 1 July heating degree days 434 450  
Cooling Degree Days 0 0  
Month to date cooling degree days 0 0  
Year to date cooling degree days 1006 926  
Moisture  
Dew Point 36 °F    
Average Humidity 69    
Maximum Humidity 92    
Minimum Humidity 46    
Precipitation  
Precipitation 0.00 in 0.14 in 1.05 in (2004)
Month to date precipitation T 0.30  
Year to date precipitation 38.67 40.37  
Sea Level Pressure  
Sea Level Pressure 29.94 in    
Wind  
Wind Speed 5 mph (WNW)    
Max Wind Speed 14 mph    
Max Gust Speed 21 mph    
Visibility 10 miles    
Events      
T = Trace of Precipitation, MM = Missing Value Source: NWS Daily Summary

Daily Weather History Graph

Daily Weather History Graph

Search for Another Location

Airport or City:

Trip Planner

Search our weather history database for the weather conditions in past years. The results will help you decide how hot, cold, wet, or windy it might be!

Date:

Astronomy

Nov. 02, 2013 Rise Set
Actual Time 8:15 AM EDT 6:44 PM EDT
Civil Twilight 7:47 AM EDT 7:11 PM EDT
Nautical Twilight 7:15 AM EDT 7:43 PM EDT
Astronomical Twilight 6:44 AM EDT 8:14 PM EDT
Moon 7:12 AM EDT (11/2) 6:14 PM EDT (11/2)
Length of Visible Light 11h 24m
Length of Day
10h 28m
Waning Crescent, 1% of the Moon is Illuminated
Nov 2
Waning Crescent
Nov 3
New
Nov 10
First Quarter
Nov 17
Full
Nov 25
Last Quarter

Hourly Weather History & Observations

Time (EDT) Temp. Windchill Dew Point Humidity Pressure Visibility Wind Dir Wind Speed Gust Speed Precip Events Conditions
12:53 AM 50.0 °F - 39.9 °F 68% 29.79 in 10.0 mi WNW 5.8 mph - N/A   Overcast
1:53 AM 46.9 °F - 39.9 °F 77% 29.79 in 10.0 mi West 5.8 mph - N/A   Clear
2:53 AM 45.0 °F 41.2 °F 39.0 °F 80% 29.81 in 10.0 mi WNW 6.9 mph - N/A   Clear
3:53 AM 43.0 °F 41.3 °F 37.9 °F 82% 29.81 in 10.0 mi West 3.5 mph - N/A   Clear
4:53 AM 39.9 °F - 37.0 °F 89% 29.82 in 10.0 mi Calm Calm - N/A   Partly Cloudy
5:53 AM 37.9 °F - 35.1 °F 89% 29.82 in 10.0 mi Calm Calm - N/A   Clear
6:53 AM 37.0 °F - 34.0 °F 89% 29.83 in 9.0 mi Calm Calm - N/A   Clear
7:53 AM 37.0 °F - 35.1 °F 93% 29.85 in 8.0 mi Calm Calm - N/A   Clear
8:53 AM 39.9 °F - 37.9 °F 93% 29.87 in 5.0 mi Calm Calm - N/A   Clear
9:53 AM 44.1 °F 40.1 °F 41.0 °F 89% 29.89 in 10.0 mi West 6.9 mph - N/A   Partly Cloudy
10:53 AM 48.0 °F - 39.9 °F 74% 29.91 in 10.0 mi Variable 5.8 mph - N/A   Clear
11:53 AM 52.0 °F - 39.0 °F 61% 29.92 in 10.0 mi NW 6.9 mph - N/A   Clear
12:53 PM 54.0 °F - 37.9 °F 55% 29.94 in 10.0 mi WNW 6.9 mph - N/A   Scattered Clouds
1:53 PM 54.0 °F - 37.0 °F 53% 29.94 in 10.0 mi WNW 8.1 mph - N/A   Mostly Cloudy
2:53 PM 54.0 °F - 35.1 °F 49% 29.94 in 10.0 mi West 8.1 mph - N/A   Mostly Cloudy
3:53 PM 53.1 °F - 34.0 °F 48% 29.96 in 10.0 mi WNW 10.4 mph 20.7 mph N/A   Overcast
4:53 PM 52.0 °F - 35.1 °F 53% 29.99 in 10.0 mi NW 10.4 mph - N/A   Overcast
5:53 PM 52.0 °F - 36.0 °F 54% 30.01 in 10.0 mi WNW 8.1 mph - N/A   Overcast
6:53 PM 48.9 °F - 36.0 °F 61% 30.04 in 10.0 mi NW 6.9 mph - N/A   Scattered Clouds
7:53 PM 46.9 °F - 33.1 °F 59% 30.08 in 10.0 mi NW 9.2 mph 17.3 mph N/A   Overcast
8:53 PM 44.1 °F 40.8 °F 30.9 °F 60% 30.10 in 10.0 mi Variable 5.8 mph - N/A   Clear
9:53 PM 42.1 °F 39.2 °F 32.0 °F 67% 30.12 in 10.0 mi WNW 4.6 mph - N/A   Clear
10:53 PM 42.1 °F - 33.1 °F 70% 30.15 in 10.0 mi Calm Calm - N/A   Mostly Cloudy
11:53 PM 37.0 °F - 32.0 °F 82% 30.15 in 10.0 mi Calm Calm - N/A   Clear